Location: Sternwarte ZA, Rosenfeld-Brittheim
(48.2889°N, 8.6789°E)
Time: 04:33:40
(UTC+01:00)

ISS - Pass Details

Date: 15 January 2018
Orbit: 402 x 407 km, 51.6° (Epoch: 24 January)

Event Time Altitude Azimuth Distance (km) Brightness Sun altitude
Exits shadow 05:26:22 16° 137° (SE) 1,174 -1.0 -26.8°
Drops below altitude 10° 05:27:13 - 133° (SE) 1,503 -0.3 -26.7°
Sets 05:29:13 0° 129° (SE) 2,320 0.8 -26.4°
